FW3806 Weather Reports


Display with metric or nautical units.
time (UTC)temp
F
wind
direction
speed
MPH
gust
MPH
rain 1hr
in
rain 24hr
in
rain mn
in
humidity
%
barometer
mb
20260905084539 76 86 2.0 7.0 0.00 0.00 0.00 20 1008.0
20260905083036 75 124 0.0 0.0 0.00 0.00 0.00 21 1007.9
20260905081533 75 108 0.0 0.0 0.00 0.00 0.00 22 1007.9
20260905080037 76 85 0.0 0.0 0.00 0.00 0.00 22 1007.8
20260905074527 77 85 0.0 0.0 0.00 0.00 0.00 20 1007.7
20260905073026 78 85 0.0 0.0 0.00 0.00 0.00 19 1007.7
20260905071525 79 112 0.0 1.0 0.00 0.00 0.00 19 1007.6
20260905070026 78 77 0.0 1.0 0.00 0.00 0.00 20 1007.5
20260905064521 77 26 0.0 0.0 0.00 0.00 0.00 21 1007.3
20260905063021 76 210 0.0 0.0 0.00 0.00 0.00 23 1007.1
20260905061520 76 210 0.0 0.0 0.00 0.00 0.00 23 1007.1
20260905060020 76 210 0.0 0.0 0.00 0.00 0.00 22 1007.0
20260905054519 77 134 0.0 0.0 0.00 0.00 0.00 21 1006.9
20260905053020 77 135 0.0 0.0 0.00 0.00 0.00 22 1006.9
20260905051517 77 134 0.0 0.0 0.00 0.00 0.00 21 1006.9
20260905050022 78 135 0.0 0.0 0.00 0.00 0.00 22 1006.8
20260905044517 79 135 0.0 0.0 0.00 0.00 0.00 21 1006.7
20260905043022 81 135 0.0 0.0 0.00 0.00 0.00 19 1006.7
20260905041514 82 134 0.0 0.0 0.00 0.00 0.00 18 1006.6
20260905040014 84 135 0.0 0.0 0.00 0.00 0.00 16 1006.4
20260905034516 85 132 0.0 1.0 0.00 0.00 0.00 16 1006.4
20260905033015 86 193 0.0 1.0 0.00 0.00 0.00 15 1006.2
20260905031512 86 163 0.0 7.0 0.00 0.00 0.00 15 1005.9
20260905030017 87 220 1.0 11.0 0.00 0.00 0.00 15 1005.8
20260905024510 87 205 1.0 8.0 0.00 0.00 0.00 15 1005.6
20260905023010 87 217 0.0 10.0 0.00 0.00 0.00 14 1005.3
20260905021509 88 205 0.0 9.0 0.00 0.00 0.00 14 1005.2
20260905020009 89 158 2.0 10.0 0.00 0.00 0.00 13 1005.3
20260905014508 91 223 5.0 12.0 0.00 0.00 0.00 12 1005.2
20260905013109 92 202 4.0 14.0 0.00 0.00 0.00 12 1005.2
20260905011505 92 248 2.0 12.0 0.00 0.00 0.00 12 1005.1
20260905010004 93 200 5.0 13.0 0.00 0.00 0.00 11 1005.0
20260905004505 94 232 3.0 10.0 0.00 0.00 0.00 11 1005.1
20260905003005 93 161 7.0 13.0 0.00 0.00 0.00 11 1005.0
20260905001511 94 154 1.0 13.0 0.00 0.00 0.00 10 1005.1
20260905000002 94 237 4.0 13.0 0.00 0.00 0.00 10 1005.1
20260904234503 94 158 7.0 14.0 0.00 0.00 0.00 10 1005.2
20260904233005 95 221 9.0 14.0 0.00 0.00 0.00 11 1005.1
20260904231607 94 183 8.0 16.0 0.00 0.00 0.00 11 1005.1
20260904231501 94 174 6.0 16.0 0.00 0.00 0.00 11 1005.2
20260904230109 95 200 8.0 13.0 0.00 0.00 0.00 11 1005.2
20260904224601 94 199 7.0 17.0 0.00 0.00 0.00 11 1005.5
20260904223129 93 200 8.0 14.0 0.00 0.00 0.00 12 1005.7
20260904221559 94 154 9.0 14.0 0.00 0.00 0.00 12 1005.8
20260904220055 94 161 2.0 9.0 0.00 0.00 0.00 13 1005.9
20260904214557 93 197 6.0 13.0 0.00 0.00 0.00 13 1006.1
20260904213054 93 171 7.0 14.0 0.00 0.00 0.00 13 1006.2
20260904211551 91 111 5.0 15.0 0.00 0.00 0.00 13 1006.4
20260904210150 91 172 6.0 19.0 0.00 0.00 0.00 14 1006.5
20260904204550 91 155 8.0 17.0 0.00 0.00 0.00 13 1006.6
20260904203059 92 211 8.0 16.0 0.00 0.00 0.00 13 1006.7
20260904201543 90 148 8.0 16.0 0.00 0.00 0.00 14 1006.8
20260904200043 90 207 10.0 16.0 0.00 0.00 0.00 14 1007.0
20260904194542 89 176 11.0 18.0 0.00 0.00 0.00 15 1007.1
20260904193040 88 133 9.0 21.0 0.00 0.00 0.00 16 1007.3
20260904191547 88 105 12.0 20.0 0.00 0.00 0.00 16 1007.6
20260904190036 88 155 11.0 21.0 0.00 0.00 0.00 16 1007.7
20260904184534 88 145 10.0 21.0 0.00 0.00 0.00 16 1007.8
20260904183033 87 152 13.0 23.0 0.00 0.00 0.00 16 1008.0
20260904181534 87 148 10.0 22.0 0.00 0.00 0.00 17 1008.0
20260904180030 86 176 11.0 21.0 0.00 0.00 0.00 17 1008.0
20260904174531 86 130 8.0 18.0 0.00 0.00 0.00 17 1007.9
20260904173045 85 134 8.0 16.0 0.00 0.00 0.00 19 1008.0
20260904171525 84 119 8.0 17.0 0.00 0.00 0.00 20 1007.9
20260904170022 83 156 9.0 16.0 0.00 0.00 0.00 21 1007.7
20260904164520 82 191 6.0 15.0 0.00 0.00 0.00 23 1007.7
20260904163019 81 113 10.0 15.0 0.00 0.00 0.00 24 1007.7
20260904161519 81 127 9.0 16.0 0.00 0.00 0.00 24 1007.7
20260904160018 80 165 7.0 14.0 0.00 0.00 0.00 26 1007.6
20260904154518 79 86 7.0 13.0 0.00 0.00 0.00 27 1007.7
20260904153017 78 124 7.0 17.0 0.00 0.00 0.00 28 1007.8
20260904151515 77 126 6.0 12.0 0.00 0.00 0.00 29 1007.6
20260904150016 77 101 6.0 10.0 0.00 0.00 0.00 30 1007.6
20260904144512 76 90 6.0 9.0 0.00 0.00 0.00 31 1007.4
20260904143012 75 132 4.0 8.0 0.00 0.00 0.00 32 1007.3
20260904141511 74 108 4.0 6.0 0.00 0.00 0.00 33 1007.2
20260904140009 73 95 3.0 7.0 0.00 0.00 0.00 34 1007.1
20260904134508 73 102 2.0 6.0 0.00 0.00 0.00 34 1006.9
20260904133007 72 125 2.0 7.0 0.00 0.00 0.00 35 1006.9
20260904131504 73 105 3.0 6.0 0.00 0.00 0.00 34 1006.7
20260904130008 73 82 5.0 8.0 0.00 0.00 0.00 33 1006.5
20260904124501 73 64 3.0 9.0 0.00 0.00 0.00 33 1006.2
20260904123100 73 59 4.0 8.0 0.00 0.00 0.00 33 1006.0
20260904121559 72 87 0.0 1.0 0.00 0.00 0.00 32 1005.9
20260904120105 73 123 0.0 1.0 0.00 0.00 0.00 31 1005.8
20260904114557 74 79 0.0 3.0 0.00 0.00 0.00 31 1005.8
20260904113053 73 105 0.0 3.0 0.00 0.00 0.00 31 1005.7
20260904111552 73 65 2.0 3.0 0.00 0.00 0.00 30 1005.4
20260904110048 74 108 2.0 7.0 0.00 0.00 0.00 28 1005.2
20260904104546 75 92 4.0 12.0 0.00 0.00 0.00 27 1005.1
20260904103042 75 79 5.0 9.0 0.00 0.00 0.00 26 1005.0
20260904101541 75 83 4.0 9.0 0.00 0.00 0.00 25 1004.9
20260904100039 75 83 5.0 8.0 0.00 0.00 0.00 25 1004.7
20260904094535 76 112 5.0 9.0 0.00 0.00 0.00 27 1004.7
20260904093034 76 98 3.0 7.0 0.00 0.00 0.00 22 1004.7
20260904091546 78 98 5.0 12.0 0.00 0.00 0.00 21 1004.6
20260904090028 80 101 6.0 10.0 0.00 0.00 0.00 22 1004.6